When you browse on this site, cookies collect data to enhance your experience and personalize the content and advertising you see.
Visit our Privacy Policy to learn more. By continuing to use the site, you agree to this use of cookies and data.
  • In Hungary
  • List of Countries
  • For 7 days
  • Water Temperature
  • Weather Map
  • News
  • Weather Widgets
  • user-avatar
    Login

    Hourly Weather Zavody

    Today, 25 February, Tuesday

    Time Temperature Precipitation Wind Pressure Humidity
    00:00 -1°C° 0 mm 3 mps 744 mmHg 77%
    01:00 -1°C° 0 mm 3 mps 744 mmHg 78%
    02:00 -2°C° 0 mm 3 mps 744 mmHg 80%
    03:00 -2°C° 0 mm 3 mps 743 mmHg 82%
    04:00 -2°C° 0 mm 2 mps 743 mmHg 83%
    05:00 -2°C° 0 mm 2 mps 743 mmHg 85%
    06:00 -2°C° 0 mm 2 mps 743 mmHg 85%
    07:00 -2°C° 0 mm 2 mps 743 mmHg 85%
    08:00 -2°C° 0 mm 2 mps 743 mmHg 85%
    09:00 -1°C° 0 mm 2 mps 743 mmHg 78%
    10:00 +1°C° 0 mm 2 mps 742 mmHg 70%
    11:00 +2°C° 0 mm 2 mps 742 mmHg 63%
    12:00 +1°C° 0 mm 3 mps 742 mmHg 59%
    13:00 +2°C° 0 mm 3 mps 741 mmHg 56%
    14:00 +2°C° 0 mm 3 mps 741 mmHg 53%
    15:00 +2°C° 0 mm 3 mps 740 mmHg 57%
    16:00 +2°C° 0 mm 2 mps 739 mmHg 61%
    17:00 +2°C° 0 mm 2 mps 739 mmHg 65%
    18:00 0°C° 0.2 mm 3 mps 738 mmHg 75%
    19:00 -1°C° 0.2 mm 4 mps 738 mmHg 85%
    20:00 -2°C° 0.2 mm 4 mps 737 mmHg 96%
    21:00 -1°C° 0.3 mm 4 mps 736 mmHg 96%
    22:00 -1°C° 0.3 mm 4 mps 736 mmHg 96%
    23:00 +1°C° 0.3 mm 3 mps 735 mmHg 97%

    Tomorrow, 26 February, Wednesday

    Time Temperature Precipitation Wind Pressure Humidity
    00:00 +1°C° 0.1 mm 3 mps 734 mmHg 96%
    01:00 +1°C° 0.1 mm 3 mps 734 mmHg 96%
    02:00 +2°C° 0.1 mm 2 mps 733 mmHg 95%
    03:00 +2°C° 0.2 mm 2 mps 733 mmHg 96%
    04:00 +2°C° 0.2 mm 2 mps 732 mmHg 96%
    05:00 +1°C° 0.2 mm 2 mps 732 mmHg 96%
    06:00 +1°C° 0.2 mm 2 mps 732 mmHg 96%
    07:00 +1°C° 0.2 mm 2 mps 732 mmHg 96%
    08:00 +1°C° 0.2 mm 2 mps 732 mmHg 95%
    09:00 +2°C° 0 mm 2 mps 732 mmHg 89%
    10:00 +3°C° 0 mm 2 mps 732 mmHg 83%
    11:00 +3°C° 0 mm 3 mps 732 mmHg 77%
    12:00 +3°C° 0.1 mm 3 mps 733 mmHg 76%
    13:00 +3°C° 0.1 mm 3 mps 733 mmHg 75%
    14:00 +3°C° 0.1 mm 4 mps 733 mmHg 74%
    15:00 +3°C° 0 mm 3 mps 733 mmHg 76%
    16:00 +2°C° 0 mm 3 mps 733 mmHg 79%
    17:00 +2°C° 0 mm 2 mps 733 mmHg 82%
    18:00 +2°C° 0 mm 2 mps 733 mmHg 84%
    19:00 +2°C° 0 mm 2 mps 734 mmHg 86%
    20:00 +1°C° 0 mm 2 mps 734 mmHg 88%
    21:00 +1°C° 0 mm 2 mps 734 mmHg 88%
    22:00 +1°C° 0 mm 2 mps 734 mmHg 88%
    23:00 +1°C° 0 mm 2 mps 734 mmHg 88%

    Day after tomorrow, 27 February, Thursday

    Time Temperature Precipitation Wind Pressure Humidity
    00:00 +1°C° 0 mm 2 mps 734 mmHg 89%
    01:00 +1°C° 0 mm 2 mps 734 mmHg 89%
    02:00 +1°C° 0 mm 2 mps 734 mmHg 89%
    03:00 -1°C° 0 mm 2 mps 734 mmHg 90%
    04:00 -1°C° 0 mm 2 mps 734 mmHg 91%
    05:00 -1°C° 0 mm 2 mps 733 mmHg 93%
    06:00 -1°C° 0 mm 2 mps 733 mmHg 92%
    07:00 -1°C° 0 mm 2 mps 733 mmHg 92%
    08:00 -1°C° 0 mm 2 mps 733 mmHg 92%
    09:00 +1°C° 0 mm 2 mps 733 mmHg 86%
    10:00 +1°C° 0 mm 3 mps 733 mmHg 79%
    11:00 +2°C° 0 mm 3 mps 733 mmHg 73%
    12:00 +2°C° 0 mm 3 mps 733 mmHg 72%
    13:00 +2°C° 0 mm 3 mps 733 mmHg 71%
    14:00 +2°C° 0 mm 3 mps 733 mmHg 70%
    15:00 +1°C° 0 mm 3 mps 733 mmHg 72%
    16:00 +1°C° 0 mm 3 mps 733 mmHg 73%
    17:00 +1°C° 0 mm 2 mps 733 mmHg 75%
    18:00 0°C° 0 mm 3 mps 733 mmHg 77%
    19:00 -1°C° 0 mm 3 mps 733 mmHg 80%
    20:00 -2°C° 0 mm 3 mps 734 mmHg 82%
    21:00 -2°C° 0 mm 3 mps 734 mmHg 82%
    22:00 -2°C° 0 mm 3 mps 734 mmHg 83%
    23:00 -2°C° 0 mm 3 mps 734 mmHg 83%

    28 February, Friday

    Time Temperature Precipitation Wind Pressure Humidity
    00:00 -3°C° 0 mm 4 mps 734 mmHg 84%
    01:00 -3°C° 0 mm 4 mps 735 mmHg 86%
    02:00 -3°C° 0 mm 4 mps 735 mmHg 87%
    03:00 -4°C° 0.2 mm 5 mps 735 mmHg 86%
    04:00 -4°C° 0.2 mm 5 mps 735 mmHg 85%
    05:00 -4°C° 0.2 mm 5 mps 736 mmHg 84%
    06:00 -5°C° 0 mm 5 mps 736 mmHg 81%
    07:00 -4°C° 0 mm 4 mps 737 mmHg 78%
    08:00 -4°C° 0 mm 4 mps 737 mmHg 75%
    09:00 -3°C° 0 mm 4 mps 737 mmHg 69%
    10:00 -3°C° 0 mm 4 mps 738 mmHg 63%
    11:00 -2°C° 0 mm 4 mps 738 mmHg 58%
    12:00 -2°C° 0 mm 4 mps 739 mmHg 55%
    13:00 -1°C° 0 mm 4 mps 739 mmHg 52%
    14:00 -1°C° 0 mm 4 mps 740 mmHg 50%
    15:00 -2°C° 0 mm 4 mps 740 mmHg 53%
    16:00 -1°C° 0 mm 3 mps 740 mmHg 55%
    17:00 -2°C° 0 mm 3 mps 740 mmHg 58%
    18:00 -2°C° 0 mm 2 mps 741 mmHg 64%
    19:00 -3°C° 0 mm 2 mps 741 mmHg 70%
    20:00 -3°C° 0 mm 2 mps 741 mmHg 75%
    21:00 -3°C° 0 mm 2 mps 742 mmHg 76%
    22:00 -3°C° 0 mm 2 mps 742 mmHg 77%
    23:00 -3°C° 0 mm 2 mps 742 mmHg 77%

    29 February, Saturday

    Time Temperature Precipitation Wind Pressure Humidity
    00:00 -3°C° 0.4 mm 2 mps 742 mmHg 83%
    01:00 -1°C° 0.4 mm 1 mps 742 mmHg 88%
    02:00 -1°C° 0.4 mm 1 mps 742 mmHg 93%
    03:00 -3°C° 0.4 mm 2 mps 742 mmHg 92%
    04:00 -3°C° 0.4 mm 2 mps 742 mmHg 90%
    05:00 -5°C° 0.4 mm 3 mps 742 mmHg 89%
    06:00 -5°C° 0.1 mm 3 mps 742 mmHg 89%
    07:00 -4°C° 0.1 mm 3 mps 742 mmHg 89%
    08:00 -4°C° 0.1 mm 3 mps 742 mmHg 90%
    09:00 -4°C° 0.2 mm 3 mps 743 mmHg 88%
    10:00 -2°C° 0.2 mm 3 mps 743 mmHg 87%
    11:00 -2°C° 0.2 mm 4 mps 743 mmHg 85%
    12:00 -2°C° 0.2 mm 4 mps 743 mmHg 84%
    13:00 -2°C° 0.2 mm 4 mps 744 mmHg 83%
    14:00 -1°C° 0.2 mm 4 mps 744 mmHg 82%
    15:00 -2°C° 0.2 mm 4 mps 744 mmHg 83%
    16:00 -1°C° 0.2 mm 3 mps 745 mmHg 85%
    17:00 -1°C° 0.2 mm 3 mps 745 mmHg 86%
    18:00 -2°C° 0.1 mm 3 mps 745 mmHg 87%
    19:00 -2°C° 0.1 mm 3 mps 746 mmHg 88%
    20:00 -2°C° 0.1 mm 3 mps 746 mmHg 89%
    21:00 -4°C° 0 mm 3 mps 747 mmHg 90%
    22:00 -4°C° 0 mm 3 mps 747 mmHg 90%
    23:00 -4°C° 0 mm 2 mps 748 mmHg 91%

    1 March, Sunday

    Time Temperature Precipitation Wind Pressure Humidity
    00:00 -4°C° 0 mm 2 mps 748 mmHg 90%
    01:00 -4°C° 0 mm 2 mps 748 mmHg 90%
    02:00 -4°C° 0 mm 2 mps 749 mmHg 89%
    03:00 -5°C° 0 mm 2 mps 749 mmHg 89%
    04:00 -3°C° 0 mm 1 mps 749 mmHg 89%
    05:00 -3°C° 0 mm 1 mps 749 mmHg 89%
    06:00 -3°C° 0 mm 1 mps 749 mmHg 88%
    07:00 -3°C° 0 mm 1 mps 749 mmHg 86%
    08:00 -4°C° 0 mm 2 mps 749 mmHg 85%
    09:00 -3°C° 0 mm 2 mps 749 mmHg 79%
    10:00 -2°C° 0 mm 2 mps 749 mmHg 73%
    11:00 -1°C° 0 mm 3 mps 749 mmHg 67%
    12:00 0°C° 0 mm 3 mps 749 mmHg 65%
    13:00 -1°C° 0 mm 4 mps 749 mmHg 64%
    14:00 0°C° 0 mm 4 mps 748 mmHg 63%
    15:00 0°C° 0 mm 4 mps 748 mmHg 63%
    16:00 -1°C° 0 mm 4 mps 747 mmHg 64%
    17:00 -1°C° 0 mm 4 mps 747 mmHg 64%
    18:00 -1°C° 0 mm 4 mps 747 mmHg 64%
    19:00 -2°C° 0 mm 5 mps 747 mmHg 64%
    20:00 -2°C° 0 mm 5 mps 747 mmHg 64%
    21:00 -2°C° 0.2 mm 5 mps 746 mmHg 73%
    22:00 -4°C° 0.2 mm 5 mps 746 mmHg 83%
    23:00 -4°C° 0.2 mm 5 mps 746 mmHg 93%
    Show more